K0RGI Weather Reports


time (UTC)temp
C
wind
direction
speed
KPH
gust
KPH
rain 1hr
cm
rain 24hr
cm
rain mn
cm
humidity
%
barometer
mb
20260906105108 22 10 0.0 0.0 0.00 0.00 0.00 98 1015.0
20260906104107 22 26 0.0 0.0 0.00 0.00 0.00 98 1015.0
20260906103107 22 359 0.0 0.0 0.00 0.00 0.00 98 1015.1
20260906102102 22 21 0.0 0.0 0.00 0.00 0.00 98 1014.8
20260906101057 22 21 0.0 0.0 0.00 0.00 0.00 98 1014.8
20260906100053 22 27 0.0 0.0 0.00 0.00 0.00 98 1015.0
20260906095048 22 24 0.0 0.0 0.00 0.00 0.00 98 1014.7
20260906094043 22 26 0.0 0.0 0.00 0.00 0.00 98 1014.6
20260906093039 22 28 0.0 0.0 0.00 0.00 0.00 98 1014.7
20260906092035 22 30 0.0 1.6 0.00 0.00 0.00 98 1014.8
20260906091033 22 28 0.0 0.0 0.00 0.00 0.00 97 1014.7
20260906090028 22 12 0.0 0.0 0.00 0.00 0.00 97 1014.9
20260906085027 22 342 0.0 0.0 0.00 0.00 0.00 97 1014.5
20260906084026 22 18 0.0 0.0 0.00 0.00 0.00 97 1014.6
20260906083021 23 28 0.0 0.0 0.00 0.00 0.00 97 1014.7
20260906082018 23 22 0.0 0.0 0.00 0.00 0.00 96 1014.7
20260906081015 23 4 0.0 0.0 0.00 0.00 0.00 96 1014.7
20260906080013 23 4 0.0 0.0 0.00 0.00 0.00 96 1014.9
20260906075014 23 359 0.0 0.0 0.00 0.00 0.00 96 1015.1
20260906074013 23 348 0.0 0.0 0.00 0.00 0.00 97 1015.2
20260906073010 23 1 0.0 0.0 0.00 0.00 0.00 97 1015.1
20260906072007 23 334 0.0 0.0 0.00 0.00 0.00 97 1015.4
20260906071004 23 352 0.0 0.0 0.00 0.00 0.00 97 1014.6
20260906070001 23 21 0.0 0.0 0.00 0.00 0.00 96 1014.5
20260906064956 23 18 0.0 0.0 0.00 0.00 0.00 96 1014.6
20260906063953 23 19 0.0 0.0 0.00 0.00 0.00 96 1014.6
20260906062949 23 15 0.0 0.0 0.00 0.00 0.00 96 1014.3
20260906061945 23 5 0.0 0.0 0.00 0.00 0.00 96 1014.6
20260906060941 23 5 0.0 0.0 0.00 0.00 0.00 96 1014.6
20260906055940 23 350 1.6 1.6 0.00 0.00 0.00 95 1014.8
20260906054937 23 9 0.0 0.0 0.00 0.00 0.00 95 1014.8
20260906053933 23 28 0.0 0.0 0.00 0.00 0.00 95 1015.3
20260906052930 23 27 0.0 0.0 0.00 0.00 0.00 95 1015.0
20260906051929 23 30 0.0 0.0 0.00 0.00 0.00 95 1015.1
20260906050925 23 24 0.0 0.0 0.00 0.00 0.00 95 1015.1
20260906045924 23 27 0.0 0.0 0.00 0.00 0.00 96 1015.3
20260906044919 23 13 0.0 0.0 0.00 0.00 0.00 96 1015.3
20260906043915 23 10 0.0 0.0 0.00 0.00 0.00 95 1015.3
20260906042912 23 9 0.0 0.0 0.00 0.00 0.00 95 1015.7
20260906041912 23 5 0.0 0.0 0.00 0.00 0.00 95 1015.7
20260906040908 23 16 0.0 0.0 0.00 0.00 0.00 95 1015.8
20260906035905 24 27 0.0 0.0 0.00 0.00 0.00 95 1015.9
20260906034901 24 5 0.0 0.0 0.00 0.00 0.00 95 1015.7
20260906033857 24 5 0.0 0.0 0.00 0.00 0.00 95 1015.7
20260906032853 24 8 0.0 0.0 0.00 0.00 0.00 95 1015.6
20260906031850 24 22 0.0 0.0 0.00 0.00 0.00 94 1015.8
20260906030845 24 27 0.0 0.0 0.00 0.00 0.00 94 1015.6
20260906025840 25 18 0.0 0.0 0.00 0.00 0.00 93 1015.5
20260906024839 25 18 0.0 0.0 0.00 0.00 0.00 93 1015.5
20260906023834 25 18 0.0 0.0 0.00 0.00 0.00 92 1015.3
20260906022831 25 18 0.0 0.0 0.00 0.00 0.00 92 1015.0
20260906021828 25 18 0.0 0.0 0.00 0.00 0.00 91 1014.8
20260906020827 25 18 0.0 0.0 0.00 0.00 0.00 91 1014.8
20260906015827 25 18 0.0 0.0 0.00 0.00 0.00 91 1014.7
20260906014826 25 18 0.0 0.0 0.00 0.00 0.00 90 1014.8
20260906013824 25 19 0.0 0.0 0.00 0.00 0.00 90 1015.1
20260906012820 25 19 0.0 0.0 0.00 0.00 0.00 90 1014.9
20260906011821 25 19 0.0 0.0 0.00 0.00 0.00 89 1014.7
20260906010817 26 20 0.0 0.0 0.00 0.00 0.00 89 1014.5
20260906005814 26 25 0.0 0.0 0.00 0.00 0.00 88 1014.7
20260906004812 26 31 0.0 0.0 0.00 0.00 0.00 88 1014.7
20260906003807 26 273 3.2 3.2 0.00 0.00 0.00 87 1014.7
20260906002804 26 29 0.0 0.0 0.00 0.00 0.00 86 1014.7
20260906001759 26 29 0.0 0.0 0.00 0.00 0.00 85 1014.7
20260906000755 26 9 0.0 0.0 0.00 0.00 0.00 84 1014.7
20260905235750 26 357 0.0 0.0 0.00 0.00 0.00 84 1014.5
20260905234746 27 357 0.0 0.0 0.00 0.00 0.00 83 1014.7
20260905233742 27 357 0.0 0.0 0.00 0.00 0.00 82 1014.5
20260905232741 27 357 0.0 0.0 0.00 0.00 0.00 81 1014.8
20260905231739 27 357 0.0 0.0 0.00 0.00 0.00 81 1014.4
20260905230736 28 12 0.0 0.0 0.00 0.00 0.00 80 1014.7
20260905225733 28 12 0.0 0.0 0.00 0.00 0.00 80 1014.5
20260905224733 28 33 0.0 0.0 0.00 0.00 0.00 79 1014.6
20260905223731 28 305 1.6 3.2 0.00 0.00 0.00 79 1014.6
20260905222729 27 6 0.0 0.0 0.00 0.00 0.00 79 1014.5
20260905221724 28 237 4.8 8.0 0.00 0.00 0.00 79 1014.5
20260905220722 27 30 1.6 1.6 0.00 0.00 0.00 79 1014.4
20260905215717 27 35 0.0 0.0 0.00 0.00 0.00 80 1014.6
20260905214715 27 19 0.0 0.0 0.00 0.00 0.00 82 1014.7
20260905213711 27 22 0.0 0.0 0.00 0.00 0.00 84 1015.0
20260905212708 26 4 0.0 0.0 0.00 0.00 0.00 85 1015.3
20260905211708 26 3 0.0 0.0 0.00 0.00 0.00 84 1015.2
20260905210706 26 321 3.2 3.2 0.00 0.00 0.00 83 1014.9
20260905205704 27 348 0.0 0.0 0.00 0.00 0.00 82 1015.1
20260905204704 27 353 0.0 0.0 0.00 0.00 0.00 82 1014.9
20260905203700 27 348 0.0 0.0 0.00 0.00 0.00 82 1015.3
20260905202656 27 348 0.0 0.0 0.00 0.00 0.00 82 1015.5
20260905201653 27 350 1.6 1.6 0.00 0.00 0.00 82 1015.7
20260905200648 27 326 1.6 3.2 0.00 0.00 0.00 81 1015.7
20260905195647 27 346 0.0 1.6 0.00 0.00 0.00 80 1015.6
20260905194644 27 3 0.0 0.0 0.00 0.00 0.00 83 1015.8
20260905193638 27 354 0.0 0.0 0.00 0.00 0.00 81 1015.8
20260905192634 28 12 0.0 0.0 0.00 0.00 0.00 80 1016.0
20260905191630 27 13 0.0 0.0 0.00 0.00 0.00 80 1016.3
20260905190627 27 14 0.0 0.0 0.00 0.00 0.00 80 1016.3
20260905185625 27 2 0.0 1.6 0.00 0.00 0.00 80 1016.1
20260905184626 27 349 1.6 3.2 0.00 0.00 0.00 80 1016.3
20260905183624 28 4 0.0 0.0 0.00 0.00 0.00 79 1016.3
20260905182619 28 347 1.6 1.6 0.00 0.00 0.00 77 1016.2
20260905181620 30 4 0.0 0.0 0.00 0.00 0.00 72 1016.2
20260905180619 31 352 3.2 4.8 0.00 0.00 0.00 69 1016.3
20260905175620 32 4 3.2 4.8 0.00 0.00 0.00 67 1016.1
20260905174617 33 20 1.6 1.6 0.00 0.00 0.00 63 1016.4
20260905173614 35 328 3.2 3.2 0.00 0.00 0.00 57 1016.2
20260905172614 34 60 1.6 1.6 0.00 0.00 0.00 58 1016.3
20260905171612 33 349 1.6 1.6 0.00 0.00 0.00 59 1016.3
20260905170610 33 2 0.0 1.6 0.00 0.00 0.00 61 1016.2
20260905165605 32 318 3.2 3.2 0.00 0.00 0.00 65 1016.4
20260905164601 33 15 0.0 0.0 0.00 0.00 0.00 67 1016.9
20260905163557 32 346 1.6 1.6 0.00 0.00 0.00 69 1016.9
20260905162555 32 339 1.6 3.2 0.00 0.00 0.00 70 1017.0
20260905161554 31 42 0.0 0.0 0.00 0.00 0.00 70 1016.9
20260905160551 31 43 0.0 1.6 0.00 0.00 0.00 72 1016.8
20260905155551 31 18 0.0 0.0 0.00 0.00 0.00 72 1017.0
20260905154551 31 44 0.0 0.0 0.00 0.00 0.00 71 1016.8
20260905153548 30 61 1.6 3.2 0.00 0.00 0.00 73 1017.0
20260905152549 30 49 1.6 1.6 0.00 0.00 0.00 74 1017.0
20260905151545 30 31 0.0 0.0 0.00 0.00 0.00 76 1017.0
20260905150541 30 45 0.0 0.0 0.00 0.00 0.00 75 1017.4
20260905145538 30 46 0.0 0.0 0.00 0.00 0.00 75 1017.7
20260905144538 29 12 0.0 1.6 0.00 0.00 0.00 76 1017.3
20260905143537 28 50 0.0 1.6 0.00 0.00 0.00 79 1017.6
20260905142537 27 15 0.0 1.6 0.00 0.00 0.00 82 1017.7
20260905141532 27 8 0.0 0.0 0.00 0.00 0.00 83 1017.6
20260905140529 27 26 0.0 0.0 0.00 0.00 0.00 82 1017.8
20260905135524 27 58 1.6 3.2 0.00 0.00 0.00 83 1017.6
20260905134520 27 353 0.0 1.6 0.00 0.00 0.00 85 1017.7
20260905133520 27 21 0.0 0.0 0.00 0.00 0.00 85 1017.9
20260905132519 27 52 0.0 1.6 0.00 0.00 0.00 86 1017.8
20260905131515 26 36 0.0 0.0 0.00 0.00 0.00 88 1017.9
20260905130515 26 45 0.0 0.0 0.00 0.00 0.00 87 1018.1
20260905125510 26 18 0.0 0.0 0.00 0.00 0.00 88 1017.9
20260905124508 26 28 0.0 0.0 0.00 0.00 0.00 91 1017.9
20260905123505 25 17 0.0 0.0 0.00 0.00 0.00 93 1017.9
20260905122500 25 27 0.0 0.0 0.00 0.00 0.00 95 1017.9
20260905121457 24 15 0.0 0.0 0.00 0.00 0.00 97 1017.8
20260905120456 23 11 0.0 0.0 0.00 0.00 0.00 98 1017.8
20260905115457 23 11 0.0 0.0 0.00 0.00 0.00 98 1017.4
20260905114451 23 3 0.0 0.0 0.00 0.00 0.00 98 1017.4
20260905113451 23 14 0.0 0.0 0.00 0.00 0.00 98 1016.9
20260905112448 23 14 0.0 0.0 0.00 0.00 0.00 98 1016.9
20260905111443 23 1 0.0 0.0 0.00 0.00 0.00 98 1016.7
20260905110442 23 0 0.0 0.0 0.00 0.00 0.00 98 1017.0
20260905105437 23 2 0.0 0.0 0.00 0.00 0.00 98 1016.8